Date String (YYYY-MM-DD hh:mm:ss) UTC,Instrument flags,Ambient pressure (hPa),Sample flow (lpm),Bypass flow (lpm),Sample temperature (°C),Ambient temperature (°C),ASC tube jacket temperature (°C),LED temperature (°C),Box temperature (°C),Sample RH (%),Span deviation,Mass concentration (μg/m³),Mass concentration (μg/m³),Mass concentration (μg/m³)
DateTimeUTC,F1_M11,P_M11,Q1_M11,Q2_M11,T1_M11,T2_M11,T3_M11,T4_M11,T5_M11,U1_M11,ZSPAN_M11,X0_M11,X2_M11,X1_M11
2023-01-17 23:16:00,,,,,,,,,,,,0010.66,0006.72,0006.23
2023-01-17 23:16:13,,0813.6,5.01,0.00,22.9,21.6,00.0,31.6,24.8,16.0,0000.0,0010.66,0006.72,0006.23
2023-01-17 23:17:00,,0813.6,5.04,0.00,22.9,21.6,00.0,31.6,24.7,16.0,-001.0,0010.62,0006.72,0006.25
2023-01-17 23:18:00,,0813.6,5.00,0.00,22.9,21.5,00.0,31.6,24.7,16.0,0000.0,0010.58,0006.73,0006.27
2023-01-17 23:19:00,,0813.6,4.99,0.00,22.9,21.5,00.0,31.6,24.7,16.0,0000.0,0010.47,0006.74,0006.28
2023-01-17 23:20:00,,0813.6,5.00,0.00,22.9,21.5,00.0,31.6,24.7,16.0,0000.0,0010.26,0006.74,0006.28
2023-01-17 23:21:00,,0813.5,5.00,0.00,22.8,21.4,00.0,31.6,24.7,16.0,0000.0,0010.21,0006.72,0006.28
2023-01-17 23:22:00,,0813.5,4.99,0.00,22.8,21.3,00.0,31.6,24.7,16.0,0000.0,0010.10,0006.71,0006.29
2023-01-17 23:23:00,,0813.5,5.00,0.00,22.8,21.3,00.0,31.6,24.7,16.1,0000.0,0009.83,0006.73,0006.33
2023-01-17 23:24:00,,0813.5,4.99,0.00,22.8,21.3,00.0,31.6,24.6,16.1,0000.0,0009.74,0006.76,0006.36
2023-01-17 23:25:00,,0813.5,5.02,0.00,22.8,21.2,00.0,31.6,24.6,16.1,0000.0,0009.77,0006.79,0006.38
2023-01-17 23:26:00,,0813.5,4.99,0.00,22.8,21.2,00.0,31.6,24.6,16.1,0000.0,0009.82,0006.81,0006.40
2023-01-17 23:27:00,,0813.5,5.00,0.00,22.8,21.2,00.0,31.6,24.6,16.1,0000.0,0009.75,0006.78,0006.40
2023-01-17 23:28:00,,0813.5,5.00,0.00,22.8,21.2,00.0,31.5,24.6,16.1,0000.0,0010.03,0006.76,0006.39
2023-01-17 23:29:00,,0813.5,5.03,0.00,22.8,21.1,00.0,31.5,24.5,16.2,0000.0,0010.16,0006.73,0006.39
2023-01-17 23:30:00,,0813.6,5.02,0.00,22.7,21.1,00.0,31.5,24.5,16.2,0000.0,0010.57,0006.73,0006.39
2023-01-17 23:31:00,,0813.6,5.00,0.00,22.7,21.1,00.0,31.5,24.5,16.2,0000.0,0010.70,0006.75,0006.40
2023-01-17 23:32:00,,0813.5,4.98,0.00,22.7,21.0,00.0,31.5,24.5,16.2,0000.0,0010.83,0006.77,0006.38
2023-01-17 23:33:00,,0813.6,5.01,0.00,22.7,21.0,00.0,31.5,24.4,16.2,-000.1,0011.36,0006.76,0006.36
2023-01-17 23:34:00,,0813.6,5.00,0.00,22.7,21.0,00.0,31.5,24.4,16.2,-001.3,0011.75,0006.72,0006.33
2023-01-17 23:35:00,,0813.6,5.00,0.00,22.7,20.9,00.0,31.5,24.4,16.2,-001.0,0011.91,0006.71,0006.32
2023-01-17 23:36:00,,0813.7,5.01,0.00,22.6,21.0,00.0,31.5,24.4,16.3,-000.4,0012.15,0006.69,0006.31
2023-01-17 23:37:00,,0814.1,4.99,0.00,22.7,21.8,00.0,31.5,24.6,16.3,-000.1,0012.36,0006.69,0006.31
2023-01-17 23:38:00,,0814.1,5.00,0.00,22.8,22.7,00.0,31.5,24.8,16.2,-000.4,0013.22,0006.73,0006.33
2023-01-17 23:39:00,,0814.0,4.99,0.00,22.9,22.9,00.0,31.5,24.9,16.1,-000.3,0012.99,0006.77,0006.36
2023-01-17 23:40:00,,0814.2,4.99,0.00,22.9,22.5,00.0,31.5,24.8,16.1,-000.2,0013.09,0006.81,0006.38
2023-01-17 23:41:00,,0814.1,5.02,0.00,22.9,22.2,00.0,31.6,24.8,16.1,-000.2,0012.85,0006.85,0006.41
2023-01-17 23:42:00,,0814.1,5.00,0.00,22.9,21.9,00.0,31.6,24.7,16.1,-000.3,0012.59,0006.85,0006.43
2023-01-17 23:43:00,,0814.1,5.01,0.00,22.9,21.7,00.0,31.6,24.7,16.1,-000.7,0012.51,0006.84,0006.45
2023-01-17 23:44:00,,0814.3,4.99,0.00,22.8,21.5,00.0,31.6,24.6,16.1,-001.3,0011.98,0006.85,0006.47
2023-01-17 23:45:00,,0814.1,5.00,0.00,22.8,21.4,00.0,31.6,24.5,16.2,-001.6,0011.64,0006.89,0006.50
2023-01-17 23:46:00,,0813.9,5.02,0.00,22.8,21.2,00.0,31.6,24.5,16.2,-002.2,0011.59,0006.92,0006.51
2023-01-17 23:47:00,,0813.9,5.00,0.00,22.8,21.2,00.0,31.6,24.4,16.2,-002.8,0011.67,0006.92,0006.53
2023-01-17 23:48:00,,0814.3,4.99,0.00,22.7,21.1,00.0,31.6,24.4,16.2,-002.9,0011.45,0006.91,0006.52
2023-01-17 23:49:00,,0814.2,5.02,0.00,22.7,21.0,00.0,31.6,24.4,16.2,-003.4,0010.58,0006.89,0006.52
2023-01-17 23:50:00,,0814.2,5.01,0.00,22.7,21.0,00.0,31.5,24.4,16.2,-003.5,0010.64,0006.87,0006.51
2023-01-17 23:51:00,,0814.2,4.99,0.00,22.7,21.0,00.0,31.5,24.4,16.3,-003.8,0011.07,0006.87,0006.51
2023-01-17 23:52:00,,0814.3,4.99,0.00,22.7,21.0,00.0,31.5,24.4,16.3,-000.1,0010.87,0006.85,0006.50
2023-01-17 23:53:00,,0814.4,4.99,0.00,22.7,21.0,00.0,31.5,24.3,16.3,-000.7,0010.80,0006.83,0006.49
2023-01-17 23:54:00,,0814.3,5.01,0.00,22.7,21.0,00.0,31.5,24.3,16.3,0000.0,0010.72,0006.83,0006.49
2023-01-17 23:55:00,,0814.4,5.01,0.00,22.6,21.0,00.0,31.5,24.3,16.3,-002.0,0010.79,0006.84,0006.49
2023-01-17 23:56:00,,0814.2,4.99,0.00,22.6,21.0,00.0,31.5,24.3,16.3,-000.6,0010.93,0006.84,0006.47
2023-01-17 23:57:00,,0814.1,5.00,0.00,22.6,21.0,00.0,31.5,24.3,16.3,-002.3,0011.25,0006.84,0006.47
2023-01-17 23:58:00,,0813.9,5.01,0.00,22.6,21.0,00.0,31.5,24.3,16.3,-002.2,0010.93,0006.84,0006.45
2023-01-17 23:59:00,,0813.9,5.00,0.00,22.6,21.0,00.0,31.4,24.4,16.3,-000.9,0010.99,0006.82,0006.42
